"Pseudo-MPEC" for A11Gjjc

Created 2026 Sep 4 20:37:13 UT using Find_Orb

Click here for an explanation of pseudo-MPECs

 
 Astrometry: 
     A11Gjjc*0C2026 09 04.40499321 37 37.037-15 41 00.31   ~94EK 16.79oVNEOCPT05
     A11Gjjc 0C2026 09 04.40817621 37 37.267-15 40 56.78   ~94EK 16.80oVNEOCPT05
     A11Gjjc 0C2026 09 04.44359921 37 40.286-15 40 12.58   ~94EK 17.02oVNEOCPT05
     A11Gjjc 0C2026 09 04.45629721 37 41.628-15 39 53.57   ~94EK 16.91oVNEOCPT05
     A11Gjjc KB2026 09 04.82492721 41 34.339-15 39 39.20   ~94K5 17.2 GXNEOCP595
     A11Gjjc KB2026 09 04.82606921 41 34.601-15 39 39.06   ~94K5 17.2 GXNEOCP595
     A11Gjjc KB2026 09 04.82721321 41 34.850-15 39 38.77   ~94K5 17.3 GXNEOCP595
     A11Gjjc KB2026 09 04.82835621 41 35.126-15 39 38.59   ~94K5 17.2 GXNEOCP595
     A11Gjjc KB2026 09 04.82950021 41 35.374-15 39 38.20   ~94K5 17.2 GXNEOCP595

Station data:
(595) Farra d'Isonzo  (N45.915731 E13.525780)  Italy.  Observers S. Aschi, E.
   Pettarin, G. Panterotto. Measurers S. Aschi, E. Pettarin. 0.40-m f/5.15
   reflector + CCD.
(T05) ATLAS-HKO, Haleakala  (N20.707551 W156.257010)  US/Hawaii.  Observers
   L. Denneau, R. Siverd, J. Tonry, H. Weiland. Measurers L. Denneau, N.
   Erasmus, A. Fitzsimmons, J. Robinson, R. Siverd, J. Tonry, H. Weiland.
   0.5-m f/2.0 Schmidt + CCD.

Orbital elements:  A11Gjjc
   Perihelion 2026 Oct 2.780240 +/- 5.38 TT = 18:43:32.7 (JD 2461316.280240)
Epoch 2026 Sep  5.0 TT = JDT 2461288.5   Earth MOID: 0.0079      AutoNEOCP
M 334.800761589 +/- 4.6             (J2000 ecliptic)
n   0.907092181 +/- 0.00816         Peri.  211.023712 +/- 5.6
a   1.056902925 +/- 0.00634         Node   158.293195 +/- 0.19
e   0.04260462 +/- 0.00831          Incl.    0.197325 +/- 0.011
P   1.087/396.865d         H 26.66  G  0.15   U  9.5
q 1.011873977 +/- 0.00271    Q 1.101931874 +/- 0.0154
From 9 observations 2026 Sept. 4 (10.2 hr); mean residual 0".10
Residuals in arcseconds: 
260904 T05  .02+  .12-    260904 T05  .02-  .17+    260904 595  .13-  .00     
260904 T05  .04-  .03+    260904 595  .16-  .12+    260904 595  .20+  .11-    
260904 T05  .04+  .07-    260904 595  .06-  .01-    260904 595  .15+  .01-    

Ephemerides (geocentric):
Date (UTC) HH   RA             Dec           delta  r     elong  mag " sig PA
---- --------  ------------   ------------  ------ ------ -----  --- --------
2026 09 04 21  21 41 33.401   -15 24 36.38  .00867 1.0166 160.5 17.4 2.84  91
2026 09 04 22  21 41 53.688   -15 24 00.45  .00867 1.0166 160.5 17.4 5.48  84
2026 09 04 23  21 42 14.003   -15 23 24.35  .00866 1.0165 160.6 17.4 8.52  82
2026 09 05 00  21 42 34.346   -15 22 48.07  .00865 1.0165 160.6 17.4 11.9  80
2026 09 05 01  21 42 54.717   -15 22 11.61  .00865 1.0165 160.7 17.3 15.7  80
2026 09 05 02  21 43 15.117   -15 21 34.97  .00864 1.0165 160.7 17.3 19.9  80
2026 09 05 03  21 43 35.544   -15 20 58.16  .00864 1.0165 160.7 17.3 24.5  79
2026 09 05 04  21 43 56.000   -15 20 21.16  .00863 1.0165 160.8 17.3 29.4  79
2026 09 05 05  21 44 16.484   -15 19 43.98  .00862 1.0165 160.8 17.3 34.7  79
2026 09 05 06  21 44 36.997   -15 19 06.62  .00862 1.0164 160.9 17.3 40.4  79
2026 09 05 07  21 44 57.537   -15 18 29.08  .00861 1.0164 160.9 17.3 46.5  79
2026 09 05 08  21 45 18.106   -15 17 51.36  .00861 1.0164 160.9 17.3 53.0  79
2026 09 05 09  21 45 38.704   -15 17 13.45  .00860 1.0164 161.0 17.3 59.8  80
2026 09 05 10  21 45 59.329   -15 16 35.36  .00859 1.0164 161.0 17.3 67.1  80
2026 09 05 11  21 46 19.984   -15 15 57.09  .00859 1.0164 161.1 17.3 74.7  80
2026 09 05 12  21 46 40.666   -15 15 18.63  .00858 1.0164 161.1 17.3 82.7  80
2026 09 05 13  21 47 01.377   -15 14 39.98  .00858 1.0164 161.1 17.3 91.1  80
2026 09 05 14  21 47 22.117   -15 14 01.15  .00857 1.0163 161.2 17.3  100  80
2026 09 05 15  21 47 42.884   -15 13 22.13  .00857 1.0163 161.2 17.3  109  80
2026 09 05 16  21 48 03.681   -15 12 42.92  .00856 1.0163 161.3 17.3  119  80
2026 09 05 17  21 48 24.506   -15 12 03.52  .00855 1.0163 161.3 17.3  129  80
2026 09 05 18  21 48 45.359   -15 11 23.94  .00855 1.0163 161.3 17.3  139  80
2026 09 05 19  21 49 06.241   -15 10 44.16  .00854 1.0163 161.4 17.3  150  80
2026 09 05 20  21 49 27.152   -15 10 04.19  .00854 1.0163 161.4 17.3  161  80
2026 09 05 21  21 49 48.091   -15 09 24.04  .00853 1.0162 161.5 17.3  172  80
2026 09 05 22  21 50 09.059   -15 08 43.68  .00852 1.0162 161.5 17.3  184  80
2026 09 05 23  21 50 30.056   -15 08 03.14  .00852 1.0162 161.5 17.3  196  80
2026 09 06 00  21 50 51.081   -15 07 22.40  .00851 1.0162 161.6 17.3  209  80
2026 09 06 01  21 51 12.135   -15 06 41.47  .00851 1.0162 161.6 17.3  222  80
2026 09 06 02  21 51 33.218   -15 06 00.34  .00850 1.0162 161.7 17.3  236  80
2026 09 06 03  21 51 54.329   -15 05 19.02  .00849 1.0162 161.7 17.3  250  80
2026 09 06 04  21 52 15.470   -15 04 37.50  .00849 1.0161 161.7 17.3  264  80
2026 09 06 05  21 52 36.639   -15 03 55.78  .00848 1.0161 161.8 17.3  279  80
2026 09 06 06  21 52 57.837   -15 03 13.87  .00848 1.0161 161.8 17.3  294  80
2026 09 06 07  21 53 19.063   -15 02 31.75  .00847 1.0161 161.9 17.3  309  80
2026 09 06 08  21 53 40.319   -15 01 49.44  .00847 1.0161 161.9 17.3  325  80
2026 09 06 09  21 54 01.603   -15 01 06.92  .00846 1.0161 162.0 17.3  341  80
2026 09 06 10  21 54 22.917   -15 00 24.21  .00845 1.0161 162.0 17.3  358  80
2026 09 06 11  21 54 44.259   -14 59 41.29  .00845 1.0160 162.0 17.3  375  80
2026 09 06 12  21 55 05.631   -14 58 58.17  .00844 1.0160 162.1 17.3  393  80
2026 09 06 13  21 55 27.031   -14 58 14.85  .00844 1.0160 162.1 17.2  411  80
2026 09 06 14  21 55 48.460   -14 57 31.32  .00843 1.0160 162.2 17.2  429  80
2026 09 06 15  21 56 09.918   -14 56 47.59  .00843 1.0160 162.2 17.2  448  80
2026 09 06 16  21 56 31.406   -14 56 03.65  .00842 1.0160 162.2 17.2  467  80
2026 09 06 17  21 56 52.922   -14 55 19.51  .00841 1.0160 162.3 17.2  486  80
2026 09 06 18  21 57 14.468   -14 54 35.16  .00841 1.0160 162.3 17.2  506  80
2026 09 06 19  21 57 36.043   -14 53 50.60  .00840 1.0159 162.4 17.2  527  80
2026 09 06 20  21 57 57.646   -14 53 05.84  .00840 1.0159 162.4 17.2  547  80